SCP
0 0 0 0 0 0 0 0 0 0 0 0 0 0 0 0 0 0 0 0 0 0 0 0 0 0 0 0 0 0 0 0 0 0 0 0 0 0 0 0 0 0 0 0
0 0 0 0 0 0 0 0 0 0 0 0 0 0 0 0 0 0 0 0 0 0 0 0 0 0 0 0 0 0 0 0 0 0 0 0 0 0 0 0 0 0 0 0
0 0 0 0 0 0 0 0 0 0 0 0 0 0 0 0 0 0 0 0 0 0 0 0 0 0 0 0 0 0 0 0 0 0 0 0 0 0 0 0 0 0 0 0
0 0 0 0 0 0 0 0 0 0 0 0 0 -0 0 0 0 0 0 0 0 0 0 0 0 0 0 0 0 0 0 0 0 0 0 0 0 0 0 0 0 0 0 0
0 0 0 0 0 0 0 0 0 0 0 0 0 0 0 0 0 0 0 0 0 0 0 0 0 0 0 0 0 0 0 0 0 0 0 0 0 0 0 0 0 0 0 0
0 0 0 0 0 0 0 0 0 0 0 0 0 0 -0 0 0 0 0 0 0 0 0 0 0 0 0 0 0 0 0 0 0 0 0 0 0 0 0 0 0 0 0 0
0 0 0 0 0 0 0 0 0 0 0 0 0 0 0 0 0 0 0 0 0 0 0 0 0 0 0 0 0 0 0 0 0 0 0 0 0 0 0 0 0 0 0 0
0 0 0 0 0 0 0 0 0 0 0 0 0 0 0 0 0 0 0 0 0 0 0 0 0 0 0 0 0 0 0 0 0 0 0 0 0 0 0 0 0 0 0 0
0 0 0 0 0 0 0 0 0 0 0 0 0 0 0 0 0 0 0 0 0 0 0 0 0 0 0 0 0 0 0 0 0 0 0 0 0 0 0 0 0 0 0 0
0 0 0 0 0 0 0 0 0 0 0 0 0 0 0 0 0 -0 -0 -0 0 0 0 0 0 0 0 0 0 0 0 0 0 0 0 0 0 0 0 0 0 0 0 0
0 0 0 0 0 0 0 0 0 0 0 0 0 0 0 0 0 0 0 0 0 0 0 0 -0 0 0 0 0 0 0 0 0 0 0 0 0 0 0 0 0 0 0 0
0 0 0 0 0 0 0 0 0 0 0 0 0 0 0 0 0 0 0 0 0 0 0 0 -0 0 0 0 0 0 0 0 0 0 0 0 0 0 0 0 0 0 0 0
0 0 0 0 0 0 0 0 0 0 0 0 0 0 0 0 0 0 0 0 0 0 0 0 -0 0 0 0 0 0 0 0 0 0 0 0 0 0 0 0 0 0 0 0
0 0 0 0 0 0 0 0 0 0 0 0 0 0 0 0 0 0 0 0 0 0 0 0 0 0 0 0 0 0 0 0 0 0 0 0 0 0 0 0 0 0 0 0
0 0 0 0 0 0 0 0 0 0 0 0 0 0 0 0 0 0 0 0 0 0 0 0 0 0 0 0 0 0 0 0 0 0 0 0 0 0 0 0 0 0 0 0
0 0 0 0 0 0 0 0 0 0 0 0 0 0 0 0 0 0 0 0 0 0 0 0 0 0 0 0 0 0 0 0 0 0 0 0 0 0 0 0 0 0 0 0
0 0 0 0 0 0 0 0 0 0 0 0 0 0 0 0 0 0 0 0 0 0 0 0 0 0 0 0 0 0 0 0 0 0 0 0 0 0 0 0 0 0 0 0
0 0 0 0 0 0 0 0 0 0 0 0 0 0 0 0 0 0 0 0 0 0 0 0 0 0 0 0 0 0 0 0 0 0 0 0 0 0 0 0 0 0 0 0
0 0 0 0 0 0 0 0 0 0 0 0 0 0 0 0 0 0 0 0 0 0 0 0 0 0 0 0 0 0 0 0 0 0 0 0 0 0 0 0 0 0 0 0
0 0 0 0 0 0 0 0 0 0 0 0 0 0 0 0 0 0 0 0 0 0 0 0 0 0 0 0 0 0 0 0 0 0 0 0 0 0 0 0 0 0 0 0
0 0 0 0 0 0 0 0 0 0 0 0 0 0 0 0 0 0 0 0 0 0 0 0 0 0 0 0 0 0 0 0 0 0 0 0 0 0 0 0 0 0 0 0
0 0 0 0 0 0 0 0 0 0 0 0 0 0 0 0 0 0 0 0 0 0 0 0 0 0 0 0 0 0 0 0 0 0 0 0 0 0 0 0 0 0 0 0
0 0 0 0 0 0 0 0 0 0 0 0 0 0 0 0 0 0 0 0 0 0 0 0 0 0 0 0 0 0 0 0 0 0 0 0 0 0 0 0 0 0 0 0
0 0 0 0 0 0 0 0 0 0 0 0 0 0 0 0 0 0 0 0 0 0 0 0 0 0 0 0 0 0 0 0 0 0 0 0 0 0 0 0 0 0 0 0
0 0 0 0 0 0 0 0 0 0 0 0 0 0 0 0 0 0 0 0 0 0 0 0 0 0 0 0 0 0 0 0 0 0 0 0 0 0 0 0 0 0 0 0
0 0 0 0 0 0 0 0 0 0 0 0 0 0 0 0 0 0 0 0 0 0 0 0 0 0 0 0 0 0 0 0 0 0 0 0 0 0 0 0 0 0 0 0
Wind_Speed_500mb
3 7 14 25 12 6 11 7 8 9 7 7 16 21 22 42 34 53 62 60 64 72 68 70 68 67 66 68 70 68 64 59 53 50 55 58 59 58 54 52 48 50 51 53
8 12 20 11 11 8 6 5 10 11 7 9 18 28 27 25 37 61 71 73 76 75 75 73 72 75 77 74 73 72 70 64 57 54 59 60 63 60 57 55 54 47 47 46
15 9 8 15 9 11 10 12 11 14 6 8 8 17 17 18 45 63 74 77 76 84 87 84 80 82 83 82 78 75 72 66 60 59 63 63 63 63 63 64 58 51 44 47
12 8 10 7 9 16 12 16 10 7 3 10 3 13 13 14 20 18 60 72 88 92 92 90 87 87 90 86 81 77 73 69 65 61 66 69 72 74 69 62 59 55 49 48
17 17 14 12 15 15 13 11 13 6 6 8 8 3 8 3 16 28 37 76 81 82 82 81 81 80 82 89 87 82 77 71 68 63 64 72 77 71 66 64 62 60 54 53
8 3 14 15 5 11 15 11 11 8 5 11 21 18 21 13 23 14 35 63 62 55 52 53 55 57 64 74 85 85 80 75 71 66 67 76 74 72 73 70 68 63 57 57
3 10 6 9 12 6 6 11 4 7 2 21 5 6 32 8 14 21 28 61 50 36 28 28 33 41 49 62 77 88 83 81 77 70 71 74 74 72 69 69 67 66 63 65
17 19 23 15 21 16 18 16 12 15 8 12 9 15 15 24 37 54 66 70 61 49 37 33 30 34 42 51 65 86 89 86 79 73 74 73 73 73 75 71 69 67 63 68
12 13 4 5 5 24 13 15 9 3 4 5 11 14 16 17 25 22 51 48 45 35 28 27 29 34 41 48 58 79 90 86 80 76 76 75 77 79 77 74 73 71 67 75
8 8 1 2 7 6 13 12 6 3 6 10 12 12 14 15 20 24 27 43 45 31 26 24 23 27 33 40 50 69 84 84 79 75 75 77 76 78 78 77 74 72 77 81
12 9 3 5 13 19 7 9 4 8 10 10 6 19 16 21 22 16 15 21 13 14 19 20 18 23 28 36 47 64 79 84 81 73 76 77 77 79 77 75 75 77 81 85
18 9 13 20 4 5 4 13 15 10 10 7 5 31 6 14 12 18 20 10 5 9 12 12 11 22 29 35 44 61 75 81 78 73 80 74 76 78 75 77 79 82 87 86
14 7 3 13 5 5 10 10 15 8 6 21 14 30 5 7 9 10 19 14 11 11 12 10 17 28 31 35 44 57 73 80 77 77 81 76 78 80 79 80 82 85 90 88
33 10 17 25 9 10 11 14 21 29 14 34 27 68 21 7 12 14 26 28 22 21 20 22 33 34 34 37 44 58 72 79 80 81 86 83 86 84 84 83 85 89 92 88
24 16 21 40 20 8 14 13 28 41 57 20 69 38 63 35 20 33 49 34 37 49 42 46 42 43 42 45 49 57 69 79 84 87 90 91 86 86 85 86 89 94 95 90
17 10 21 35 34 34 27 16 34 44 46 48 63 56 30 21 39 29 54 74 76 77 66 54 53 48 50 54 55 60 67 77 84 89 91 91 86 87 87 86 92 97 96 92
30 18 17 33 19 16 18 59 47 34 37 43 46 70 35 31 19 50 64 73 70 64 73 77 69 64 57 58 62 60 65 73 80 86 90 93 93 92 91 88 91 96 95 90
5 30 17 23 10 24 31 15 47 51 48 43 50 67 58 48 58 63 89 71 74 81 79 72 67 68 67 68 66 60 63 69 76 82 87 92 95 94 91 90 93 96 97 92
25 15 13 18 30 17 18 15 18 22 48 47 56 62 69 78 31 74 86 87 89 86 81 69 57 57 60 59 59 58 59 65 73 78 85 89 91 92 90 91 93 96 94 89
25 27 16 9 11 14 17 4 15 14 27 18 37 51 54 23 16 41 23 27 33 39 40 41 44 47 46 47 45 49 53 59 65 72 77 79 81 83 85 87 87 88 87 83
8 12 29 27 24 9 10 8 14 15 14 6 12 37 29 12 30 41 19 16 30 35 37 34 31 28 27 31 34 38 43 48 50 52 56 63 70 75 76 77 80 79 76 72
13 11 10 10 13 14 17 8 18 11 6 5 6 11 19 21 24 36 41 34 37 33 22 17 13 14 14 14 15 19 23 24 30 34 39 47 57 65 68 68 69 69 65 62
16 23 13 17 10 6 44 9 32 18 22 26 23 21 24 25 19 18 19 17 13 11 8 10 10 12 16 16 13 12 15 17 18 20 22 28 37 48 54 57 56 54 56 63
6 5 5 3 10 13 21 36 24 29 30 26 21 18 21 20 19 18 15 14 9 11 14 17 20 22 27 31 28 23 19 20 19 20 21 22 31 41 50 58 60 60 65 72
4 1 3 8 14 17 40 33 36 39 36 29 20 15 13 14 16 16 16 15 16 17 20 22 21 25 29 31 32 31 27 22 19 20 20 20 20 23 27 32 36 42 44 48
8 7 6 8 10 5 14 25 28 34 34 28 22 16 12 12 12 14 15 15 20 26 27 30 29 30 33 32 32 30 29 26 22 23 22 20 20 21 24 27 30 34 36 41
Wind_Direction_500mb
86 107 198 210 182 128 135 178 215 249 249 193 241 261 264 272 254 254 252 251 251 250 255 247 243 241 239 238 237 239 240 241 240 231 216 210 209 211 218 220 222 229 229 209
43 229 230 124 161 170 145 184 250 278 250 188 272 260 260 245 251 250 252 251 250 251 251 249 242 240 239 240 240 239 240 239 239 231 219 218 207 211 217 217 214 213 222 228
172 217 130 152 158 164 212 192 216 222 312 240 306 281 243 259 241 252 254 257 256 253 253 252 246 241 240 239 239 238 237 236 235 230 215 211 210 213 213 212 215 218 220 218
232 228 146 169 194 160 241 204 171 201 91 252 152 288 262 238 250 234 252 253 256 255 254 254 253 246 243 244 240 237 234 234 232 227 213 212 211 210 213 216 215 216 217 213
233 176 179 188 197 162 225 131 162 151 182 319 188 204 241 315 266 260 251 256 258 260 262 263 261 258 251 242 239 234 229 229 231 227 216 212 212 216 217 217 216 213 215 213
234 186 168 198 131 161 144 88 59 53 103 279 175 170 273 192 220 254 259 264 268 272 271 270 265 259 252 243 236 232 228 228 228 223 213 210 215 216 215 214 211 211 214 207
131 221 189 164 96 53 147 108 300 321 18 242 84 159 242 269 261 222 246 265 274 274 273 274 264 255 248 240 232 227 224 226 225 219 213 214 216 218 222 221 219 215 212 202
193 255 167 191 194 164 200 167 175 210 208 269 141 228 245 243 264 248 257 263 267 271 278 272 266 260 252 243 233 225 223 224 224 221 215 214 218 219 221 219 222 220 221 208
171 265 233 150 131 159 197 206 221 333 89 355 242 281 295 263 269 274 252 256 264 271 272 270 264 262 255 245 235 225 223 224 224 220 214 214 214 218 220 219 217 218 221 206
220 280 43 329 121 41 166 167 75 345 201 256 266 269 228 263 252 247 267 256 257 264 268 268 272 273 262 248 237 226 225 228 227 221 216 214 219 220 221 220 219 221 212 203
176 170 283 144 211 165 136 204 154 141 158 189 296 266 213 222 232 223 261 284 261 244 252 249 252 261 257 246 236 225 223 226 227 221 217 216 221 221 222 219 218 218 210 204
207 186 220 211 253 244 285 218 165 152 220 241 176 268 171 231 273 229 248 275 224 232 241 246 267 271 256 247 234 226 224 227 229 222 216 220 223 223 222 221 217 216 209 205
174 215 358 325 4 339 220 195 196 117 86 220 168 256 1 325 289 219 249 251 259 231 220 259 290 274 261 250 235 226 225 228 229 221 218 222 223 225 225 223 220 214 209 207
163 178 206 229 179 138 192 196 193 201 215 240 230 254 259 252 261 284 267 263 249 246 267 294 289 273 255 249 240 231 228 228 230 225 221 223 225 226 227 227 221 213 210 209
164 211 216 244 246 169 201 203 200 209 229 202 250 245 256 245 253 269 278 275 260 259 263 282 272 275 258 248 244 237 233 232 231 228 227 224 225 228 229 227 217 211 211 210
176 219 200 251 241 241 243 212 220 221 232 235 254 260 250 235 244 239 252 256 260 266 271 266 261 257 264 260 252 246 240 235 232 231 231 226 228 229 228 225 216 212 211 212
171 187 182 248 226 184 233 230 225 220 223 223 241 247 252 260 224 248 259 261 258 262 269 270 269 275 270 272 260 251 247 241 235 232 232 230 228 229 228 223 218 216 215 215
281 208 198 235 150 221 234 191 216 223 232 226 246 256 256 253 262 267 267 265 271 272 272 272 272 271 266 264 257 249 243 242 239 234 232 232 230 228 226 223 220 218 218 217
219 238 226 221 231 261 296 235 163 179 245 230 231 252 261 261 269 270 267 274 278 282 285 284 280 274 268 263 258 250 242 239 238 235 232 230 229 228 227 225 221 219 219 219
219 210 232 189 212 219 231 252 207 123 247 240 214 242 252 236 240 264 281 273 274 277 280 283 278 269 263 256 250 243 239 238 237 235 233 232 229 229 229 226 222 221 223 224
196 214 229 243 244 245 235 234 149 160 235 328 228 242 270 191 234 258 281 248 273 280 283 279 274 265 256 253 250 243 239 238 239 239 237 233 228 226 227 227 225 224 224 225
192 201 198 218 252 248 166 112 167 202 193 246 260 268 271 274 268 259 273 276 269 270 267 263 247 233 224 220 220 223 226 229 230 231 232 230 227 223 224 225 227 227 227 232
239 221 212 194 217 253 191 229 202 191 257 261 228 243 260 271 269 263 264 264 254 236 209 179 163 168 154 141 141 162 165 177 184 196 209 218 222 225 227 228 228 229 229 230
266 239 212 32 249 253 237 235 240 237 247 258 258 262 258 256 262 257 232 218 200 158 138 134 133 137 135 129 129 128 133 137 149 161 179 200 210 216 221 224 226 225 225 230
199 139 242 289 288 285 276 267 269 266 257 256 251 249 254 252 264 250 219 189 164 153 145 134 137 137 137 137 139 139 143 152 161 165 172 179 185 194 205 214 222 227 233 238
215 217 210 239 236 267 292 305 299 262 247 241 243 239 235 245 257 246 215 183 164 155 150 144 143 142 136 136 136 135 136 136 143 151 160 170 180 189 199 207 217 224 230 236
Wind_Speed_850mb
3 7 14 25 12 6 11 7 8 9 7 7 16 21 22 42 34 53 62 60 64 72 68 70 68 67 66 68 70 68 64 59 53 50 55 58 59 58 54 52 48 50 51 53
8 12 20 11 11 8 6 5 10 11 7 9 18 28 27 25 37 61 71 73 76 75 75 73 72 75 77 74 73 72 70 64 57 54 59 60 63 60 57 55 54 47 47 46
15 9 8 15 9 11 10 12 11 14 6 8 8 17 17 18 45 63 74 77 76 84 87 84 80 82 83 82 78 75 72 66 60 59 63 63 63 63 63 64 58 51 44 47
12 8 10 7 9 16 12 16 10 7 3 10 3 13 13 14 20 18 60 72 88 92 92 90 87 87 90 86 81 77 73 69 65 61 66 69 72 74 69 62 59 55 49 48
17 17 14 12 15 15 13 11 13 6 6 8 8 3 8 3 16 28 37 76 81 82 82 81 81 80 82 89 87 82 77 71 68 63 64 72 77 71 66 64 62 60 54 53
8 3 14 15 5 11 15 11 11 8 5 11 21 18 21 13 23 14 35 63 62 55 52 53 55 57 64 74 85 85 80 75 71 66 67 76 74 72 73 70 68 63 57 57
3 10 6 9 12 6 6 11 4 7 2 21 5 6 32 8 14 21 28 61 50 36 28 28 33 41 49 62 77 88 83 81 77 70 71 74 74 72 69 69 67 66 63 65
17 19 23 15 21 16 18 16 12 15 8 12 9 15 15 24 37 54 66 70 61 49 37 33 30 34 42 51 65 86 89 86 79 73 74 73 73 73 75 71 69 67 63 68
12 13 4 5 5 24 13 15 9 3 4 5 11 14 16 17 25 22 51 48 45 35 28 27 29 34 41 48 58 79 90 86 80 76 76 75 77 79 77 74 73 71 67 75
8 8 1 2 7 6 13 12 6 3 6 10 12 12 14 15 20 24 27 43 45 31 26 24 23 27 33 40 50 69 84 84 79 75 75 77 76 78 78 77 74 72 77 81
12 9 3 5 13 19 7 9 4 8 10 10 6 19 16 21 22 16 15 21 13 14 19 20 18 23 28 36 47 64 79 84 81 73 76 77 77 79 77 75 75 77 81 85
18 9 13 20 4 5 4 13 15 10 10 7 5 31 6 14 12 18 20 10 5 9 12 12 11 22 29 35 44 61 75 81 78 73 80 74 76 78 75 77 79 82 87 86
14 7 3 13 5 5 10 10 15 8 6 21 14 30 5 7 9 10 19 14 11 11 12 10 17 28 31 35 44 57 73 80 77 77 81 76 78 80 79 80 82 85 90 88
33 10 17 25 9 10 11 14 21 29 14 34 27 68 21 7 12 14 26 28 22 21 20 22 33 34 34 37 44 58 72 79 80 81 86 83 86 84 84 83 85 89 92 88
24 16 21 40 20 8 14 13 28 41 57 20 69 38 63 35 20 33 49 34 37 49 42 46 42 43 42 45 49 57 69 79 84 87 90 91 86 86 85 86 89 94 95 90
17 10 21 35 34 34 27 16 34 44 46 48 63 56 30 21 39 29 54 74 76 77 66 54 53 48 50 54 55 60 67 77 84 89 91 91 86 87 87 86 92 97 96 92
30 18 17 33 19 16 18 59 47 34 37 43 46 70 35 31 19 50 64 73 70 64 73 77 69 64 57 58 62 60 65 73 80 86 90 93 93 92 91 88 91 96 95 90
5 30 17 23 10 24 31 15 47 51 48 43 50 67 58 48 58 63 89 71 74 81 79 72 67 68 67 68 66 60 63 69 76 82 87 92 95 94 91 90 93 96 97 92
25 15 13 18 30 17 18 15 18 22 48 47 56 62 69 78 31 74 86 87 89 86 81 69 57 57 60 59 59 58 59 65 73 78 85 89 91 92 90 91 93 96 94 89
25 27 16 9 11 14 17 4 15 14 27 18 37 51 54 23 16 41 23 27 33 39 40 41 44 47 46 47 45 49 53 59 65 72 77 79 81 83 85 87 87 88 87 83
8 12 29 27 24 9 10 8 14 15 14 6 12 37 29 12 30 41 19 16 30 35 37 34 31 28 27 31 34 38 43 48 50 52 56 63 70 75 76 77 80 79 76 72
13 11 10 10 13 14 17 8 18 11 6 5 6 11 19 21 24 36 41 34 37 33 22 17 13 14 14 14 15 19 23 24 30 34 39 47 57 65 68 68 69 69 65 62
16 23 13 17 10 6 44 9 32 18 22 26 23 21 24 25 19 18 19 17 13 11 8 10 10 12 16 16 13 12 15 17 18 20 22 28 37 48 54 57 56 54 56 63
6 5 5 3 10 13 21 36 24 29 30 26 21 18 21 20 19 18 15 14 9 11 14 17 20 22 27 31 28 23 19 20 19 20 21 22 31 41 50 58 60 60 65 72
4 1 3 8 14 17 40 33 36 39 36 29 20 15 13 14 16 16 16 15 16 17 20 22 21 25 29 31 32 31 27 22 19 20 20 20 20 23 27 32 36 42 44 48
8 7 6 8 10 5 14 25 28 34 34 28 22 16 12 12 12 14 15 15 20 26 27 30 29 30 33 32 32 30 29 26 22 23 22 20 20 21 24 27 30 34 36 41
Wind_Direction_850mb
86 107 198 210 182 128 135 178 215 249 249 193 241 261 264 272 254 254 252 251 251 250 255 247 243 241 239 238 237 239 240 241 240 231 216 210 209 211 218 220 222 229 229 209
43 229 230 124 161 170 145 184 250 278 250 188 272 260 260 245 251 250 252 251 250 251 251 249 242 240 239 240 240 239 240 239 239 231 219 218 207 211 217 217 214 213 222 228
172 217 130 152 158 164 212 192 216 222 312 240 306 281 243 259 241 252 254 257 256 253 253 252 246 241 240 239 239 238 237 236 235 230 215 211 210 213 213 212 215 218 220 218
232 228 146 169 194 160 241 204 171 201 91 252 152 288 262 238 250 234 252 253 256 255 254 254 253 246 243 244 240 237 234 234 232 227 213 212 211 210 213 216 215 216 217 213
233 176 179 188 197 162 225 131 162 151 182 319 188 204 241 315 266 260 251 256 258 260 262 263 261 258 251 242 239 234 229 229 231 227 216 212 212 216 217 217 216 213 215 213
234 186 168 198 131 161 144 88 59 53 103 279 175 170 273 192 220 254 259 264 268 272 271 270 265 259 252 243 236 232 228 228 228 223 213 210 215 216 215 214 211 211 214 207
131 221 189 164 96 53 147 108 300 321 18 242 84 159 242 269 261 222 246 265 274 274 273 274 264 255 248 240 232 227 224 226 225 219 213 214 216 218 222 221 219 215 212 202
193 255 167 191 194 164 200 167 175 210 208 269 141 228 245 243 264 248 257 263 267 271 278 272 266 260 252 243 233 225 223 224 224 221 215 214 218 219 221 219 222 220 221 208
171 265 233 150 131 159 197 206 221 333 89 355 242 281 295 263 269 274 252 256 264 271 272 270 264 262 255 245 235 225 223 224 224 220 214 214 214 218 220 219 217 218 221 206
220 280 43 329 121 41 166 167 75 345 201 256 266 269 228 263 252 247 267 256 257 264 268 268 272 273 262 248 237 226 225 228 227 221 216 214 219 220 221 220 219 221 212 203
176 170 283 144 211 165 136 204 154 141 158 189 296 266 213 222 232 223 261 284 261 244 252 249 252 261 257 246 236 225 223 226 227 221 217 216 221 221 222 219 218 218 210 204
207 186 220 211 253 244 285 218 165 152 220 241 176 268 171 231 273 229 248 275 224 232 241 246 267 271 256 247 234 226 224 227 229 222 216 220 223 223 222 221 217 216 209 205
174 215 358 325 4 339 220 195 196 117 86 220 168 256 1 325 289 219 249 251 259 231 220 259 290 274 261 250 235 226 225 228 229 221 218 222 223 225 225 223 220 214 209 207
163 178 206 229 179 138 192 196 193 201 215 240 230 254 259 252 261 284 267 263 249 246 267 294 289 273 255 249 240 231 228 228 230 225 221 223 225 226 227 227 221 213 210 209
164 211 216 244 246 169 201 203 200 209 229 202 250 245 256 245 253 269 278 275 260 259 263 282 272 275 258 248 244 237 233 232 231 228 227 224 225 228 229 227 217 211 211 210
176 219 200 251 241 241 243 212 220 221 232 235 254 260 250 235 244 239 252 256 260 266 271 266 261 257 264 260 252 246 240 235 232 231 231 226 228 229 228 225 216 212 211 212
171 187 182 248 226 184 233 230 225 220 223 223 241 247 252 260 224 248 259 261 258 262 269 270 269 275 270 272 260 251 247 241 235 232 232 230 228 229 228 223 218 216 215 215
281 208 198 235 150 221 234 191 216 223 232 226 246 256 256 253 262 267 267 265 271 272 272 272 272 271 266 264 257 249 243 242 239 234 232 232 230 228 226 223 220 218 218 217
219 238 226 221 231 261 296 235 163 179 245 230 231 252 261 261 269 270 267 274 278 282 285 284 280 274 268 263 258 250 242 239 238 235 232 230 229 228 227 225 221 219 219 219
219 210 232 189 212 219 231 252 207 123 247 240 214 242 252 236 240 264 281 273 274 277 280 283 278 269 263 256 250 243 239 238 237 235 233 232 229 229 229 226 222 221 223 224
196 214 229 243 244 245 235 234 149 160 235 328 228 242 270 191 234 258 281 248 273 280 283 279 274 265 256 253 250 243 239 238 239 239 237 233 228 226 227 227 225 224 224 225
192 201 198 218 252 248 166 112 167 202 193 246 260 268 271 274 268 259 273 276 269 270 267 263 247 233 224 220 220 223 226 229 230 231 232 230 227 223 224 225 227 227 227 232
239 221 212 194 217 253 191 229 202 191 257 261 228 243 260 271 269 263 264 264 254 236 209 179 163 168 154 141 141 162 165 177 184 196 209 218 222 225 227 228 228 229 229 230
266 239 212 32 249 253 237 235 240 237 247 258 258 262 258 256 262 257 232 218 200 158 138 134 133 137 135 129 129 128 133 137 149 161 179 200 210 216 221 224 226 225 225 230
199 139 242 289 288 285 276 267 269 266 257 256 251 249 254 252 264 250 219 189 164 153 145 134 137 137 137 137 139 139 143 152 161 165 172 179 185 194 205 214 222 227 233 238
215 217 210 239 236 267 292 305 299 262 247 241 243 239 235 245 257 246 215 183 164 155 150 144 143 142 136 136 136 135 136 136 143 151 160 170 180 189 199 207 217 224 230 236